Location: Stara Lesna
(49.1528°N, 20.2911°E)
Time: 17:08:41
(UTC+02:00)

CREW DRAGON DEMO-1 DEB - Pass Details

Date: 13 July 2020
Orbit: 368 x 372 km, 51.6° (Epoch: 10 August)

Event Time Altitude Azimuth Distance (km) Brightness Sun altitude
Rises 00:57:53 0° 289° (WNW) 2,226 6.9 -19.0°
Reaches altitude 10° 00:59:56 10° 289° (WNW) 1,373 5.8 -19.0°
Enters shadow 01:02:50 78° 295° (WNW) 383 2.8 -18.9°
